Time,TemperatureF,DewpointF,PressureIn,WindDirection,WindDirectionDegrees,WindSpeedMPH,WindSpeedGustMPH,Humidity,HourlyPrecipIn,Conditions,Clouds,dailyrainin,SoftwareType,DateUTC
2013-05-17 00:02:00,45.3,24.1,17.73,SE,136,0.0,4.0,25,-99.99,,,-99.99,meteohub,2013-05-17 06:02:00,
2013-05-17 00:07:00,45.3,24.1,17.73,SSE,166,0.0,4.0,25,-99.99,,,-99.99,meteohub,2013-05-17 06:07:00,
2013-05-17 00:12:00,45.3,24.1,17.73,SSE,166,0.0,4.0,25,-99.99,,,-99.99,meteohub,2013-05-17 06:12:00,
2013-05-17 00:17:00,45.3,24.1,17.73,SSE,166,0.0,4.0,25,-99.99,,,-99.99,meteohub,2013-05-17 06:17:00,
2013-05-17 00:22:00,45.3,23.9,17.73,SSE,166,0.0,4.0,25,-99.99,,,-99.99,meteohub,2013-05-17 06:22:00,
2013-05-17 00:27:00,45.5,23.9,17.73,SSE,166,0.0,0.0,25,-99.99,,,-99.99,meteohub,2013-05-17 06:27:00,
2013-05-17 00:32:00,45.5,23.9,17.73,SSE,166,0.0,0.0,25,-99.99,,,-99.99,meteohub,2013-05-17 06:32:00,
2013-05-17 00:37:00,45.5,23.9,17.73,SSE,166,0.0,0.0,25,-99.99,,,-99.99,meteohub,2013-05-17 06:37:00,
2013-05-17 00:42:00,45.5,23.9,17.73,SSW,204,0.0,0.0,25,-99.99,,,-99.99,meteohub,2013-05-17 06:42:00,
2013-05-17 00:47:00,45.5,23.9,17.73,SSW,205,2.0,0.0,25,-99.99,,,-99.99,meteohub,2013-05-17 06:47:00,
2013-05-17 00:52:00,45.5,23.9,17.73,SSW,206,0.0,3.0,25,-99.99,,,-99.99,meteohub,2013-05-17 06:52:00,
2013-05-17 00:57:00,45.5,23.9,17.73,SSW,206,0.0,3.0,25,-99.99,,,-99.99,meteohub,2013-05-17 06:57:00,
2013-05-17 01:02:00,45.7,23.9,17.73,SSW,206,0.0,4.0,25,-99.99,,,-99.99,meteohub,2013-05-17 07:02:00,
2013-05-17 01:07:00,45.5,23.9,17.73,SSW,206,2.0,4.0,25,-99.99,,,-99.99,meteohub,2013-05-17 07:07:00,
2013-05-17 01:12:00,45.5,23.9,17.73,SSW,204,3.0,4.0,25,-99.99,,,-99.99,meteohub,2013-05-17 07:12:00,
2013-05-17 01:17:00,45.5,23.9,17.73,SSW,204,0.0,4.0,25,-99.99,,,-99.99,meteohub,2013-05-17 07:17:00,
2013-05-17 01:22:00,45.5,23.9,17.73,SSW,204,0.0,4.0,25,-99.99,,,-99.99,meteohub,2013-05-17 07:22:00,
2013-05-17 01:27:00,45.7,23.7,17.73,SSW,204,0.0,4.0,25,-99.99,,,-99.99,meteohub,2013-05-17 07:27:00,
2013-05-17 01:32:00,45.7,23.7,17.73,SSW,204,0.0,2.0,25,-99.99,,,-99.99,meteohub,2013-05-17 07:32:00,
2013-05-17 01:37:00,45.7,23.7,17.73,SSW,204,0.0,0.0,25,-99.99,,,-99.99,meteohub,2013-05-17 07:37:00,
2013-05-17 01:42:00,45.9,23.7,17.73,SSW,204,0.0,0.0,25,-99.99,,,-99.99,meteohub,2013-05-17 07:42:00,
2013-05-17 01:47:00,45.7,23.7,17.73,SSW,204,0.0,0.0,25,-99.99,,,-99.99,meteohub,2013-05-17 07:47:00,
2013-05-17 01:53:00,45.9,23.7,17.73,SSW,204,0.0,0.0,25,-99.99,,,-99.99,meteohub,2013-05-17 07:53:00,
2013-05-17 01:58:00,45.9,23.5,17.73,SSW,204,0.0,0.0,25,-99.99,,,-99.99,meteohub,2013-05-17 07:58:00,
2013-05-17 02:03:00,45.9,23.5,17.73,SSW,204,0.0,0.0,25,-99.99,,,-99.99,meteohub,2013-05-17 08:03:00,
2013-05-17 02:08:00,45.7,23.5,17.73,SSW,204,0.0,0.0,25,-99.99,,,-99.99,meteohub,2013-05-17 08:08:00,
2013-05-17 02:13:00,45.7,23.5,17.73,SSW,204,0.0,0.0,25,-99.99,,,-99.99,meteohub,2013-05-17 08:13:00,
2013-05-17 02:18:00,45.7,23.5,17.73,SSW,204,0.0,0.0,25,-99.99,,,-99.99,meteohub,2013-05-17 08:18:00,
2013-05-17 02:24:00,45.9,23.4,17.73,SSW,204,0.0,0.0,25,-99.99,,,-99.99,meteohub,2013-05-17 08:24:00,
2013-05-17 02:29:00,45.9,23.4,17.73,SSW,204,0.0,0.0,25,-99.99,,,-99.99,meteohub,2013-05-17 08:29:00,
2013-05-17 02:34:00,45.9,23.4,17.73,SSW,204,0.0,0.0,25,-99.99,,,-99.99,meteohub,2013-05-17 08:34:00,
2013-05-17 02:39:00,45.7,23.4,17.73,SSW,204,0.0,0.0,25,-99.99,,,-99.99,meteohub,2013-05-17 08:39:00,
2013-05-17 02:44:00,45.7,23.4,17.73,SSW,204,0.0,0.0,25,-99.99,,,-99.99,meteohub,2013-05-17 08:44:00,
2013-05-17 02:49:00,45.7,23.4,17.73,SSW,204,0.0,0.0,25,-99.99,,,-99.99,meteohub,2013-05-17 08:49:00,
2013-05-17 02:55:00,45.5,23.4,17.73,SSW,203,0.0,0.0,25,-99.99,,,-99.99,meteohub,2013-05-17 08:55:00,
2013-05-17 03:00:00,45.5,23.4,17.73,SSW,196,2.0,5.0,25,-99.99,,,-99.99,meteohub,2013-05-17 09:00:00,
2013-05-17 03:05:00,45.5,23.4,17.73,South,178,3.0,5.0,25,-99.99,,,-99.99,meteohub,2013-05-17 09:05:00,
2013-05-17 03:10:00,45.7,23.2,17.73,South,178,0.0,5.0,25,-99.99,,,-99.99,meteohub,2013-05-17 09:10:00,
2013-05-17 03:15:00,45.5,23.2,17.73,South,178,0.0,5.0,25,-99.99,,,-99.99,meteohub,2013-05-17 09:15:00,
2013-05-17 03:20:00,45.7,23.2,17.73,South,178,0.0,4.0,25,-99.99,,,-99.99,meteohub,2013-05-17 09:20:00,
2013-05-17 03:26:00,45.5,23.2,17.73,South,188,0.0,0.0,25,-99.99,,,-99.99,meteohub,2013-05-17 09:26:00,
2013-05-17 03:31:00,45.5,24.1,17.73,South,188,0.0,0.0,26,-99.99,,,-99.99,meteohub,2013-05-17 09:31:00,
2013-05-17 03:36:00,45.5,24.1,17.73,South,177,0.0,3.0,26,-99.99,,,-99.99,meteohub,2013-05-17 09:36:00,
2013-05-17 03:41:00,45.5,23.2,17.73,South,177,0.0,3.0,25,-99.99,,,-99.99,meteohub,2013-05-17 09:41:00,
2013-05-17 03:46:00,45.5,24.1,17.73,SSE,165,0.0,3.0,26,-99.99,,,-99.99,meteohub,2013-05-17 09:46:00,
2013-05-17 03:51:00,45.5,24.1,17.73,SSE,165,0.0,3.0,26,-99.99,,,-99.99,meteohub,2013-05-17 09:51:00,
2013-05-17 03:57:00,45.5,24.1,17.73,SSE,165,0.0,3.0,26,-99.99,,,-99.99,meteohub,2013-05-17 09:57:00,
2013-05-17 04:02:00,45.5,24.1,17.73,SSE,168,0.0,4.0,26,-99.99,,,-99.99,meteohub,2013-05-17 10:02:00,
2013-05-17 04:07:00,45.3,24.1,17.73,South,172,4.0,5.0,26,-99.99,,,-99.99,meteohub,2013-05-17 10:07:00,
2013-05-17 04:12:00,45.3,23.9,17.73,South,184,4.0,6.0,26,-99.99,,,-99.99,meteohub,2013-05-17 10:12:00,
2013-05-17 04:17:00,45.5,23.9,17.73,South,184,0.0,6.0,26,-99.99,,,-99.99,meteohub,2013-05-17 10:17:00,
2013-05-17 04:22:00,45.5,23.9,17.73,South,172,0.0,6.0,26,-99.99,,,-99.99,meteohub,2013-05-17 10:22:00,
2013-05-17 04:27:00,45.5,23.9,17.73,South,172,0.0,6.0,26,-99.99,,,-99.99,meteohub,2013-05-17 10:27:00,
2013-05-17 04:32:00,45.3,23.9,17.73,South,174,0.0,4.0,26,-99.99,,,-99.99,meteohub,2013-05-17 10:32:00,
2013-05-17 04:37:00,45.3,23.9,17.73,South,174,0.0,3.0,26,-99.99,,,-99.99,meteohub,2013-05-17 10:37:00,
2013-05-17 04:42:00,45.1,23.9,17.73,South,174,0.0,0.0,26,-99.99,,,-99.99,meteohub,2013-05-17 10:42:00,
2013-05-17 04:47:00,45.1,23.9,17.73,South,174,0.0,0.0,26,-99.99,,,-99.99,meteohub,2013-05-17 10:47:00,
2013-05-17 04:52:00,45.1,23.7,17.73,South,174,0.0,0.0,26,-99.99,,,-99.99,meteohub,2013-05-17 10:52:00,
2013-05-17 04:57:00,45.1,23.7,17.73,South,174,0.0,0.0,26,-99.99,,,-99.99,meteohub,2013-05-17 10:57:00,
2013-05-17 05:02:00,45.1,22.8,17.73,South,174,0.0,0.0,25,-99.99,,,-99.99,meteohub,2013-05-17 11:02:00,
2013-05-17 05:07:00,45.0,22.8,17.73,South,174,0.0,0.0,25,-99.99,,,-99.99,meteohub,2013-05-17 11:07:00,
2013-05-17 05:12:00,44.8,22.8,17.73,South,174,0.0,0.0,25,-99.99,,,-99.99,meteohub,2013-05-17 11:12:00,
2013-05-17 05:17:00,44.6,22.6,17.73,South,174,0.0,0.0,25,-99.99,,,-99.99,meteohub,2013-05-17 11:17:00,
2013-05-17 05:22:00,44.6,22.6,17.73,South,174,0.0,0.0,25,-99.99,,,-99.99,meteohub,2013-05-17 11:22:00,
2013-05-17 05:27:00,44.4,22.6,17.73,South,174,0.0,0.0,25,-99.99,,,-99.99,meteohub,2013-05-17 11:27:00,
2013-05-17 05:32:00,44.4,22.6,17.73,South,174,3.0,0.0,25,-99.99,,,-99.99,meteohub,2013-05-17 11:32:00,
2013-05-17 05:37:00,44.2,22.6,17.73,South,174,0.0,4.0,25,-99.99,,,-99.99,meteohub,2013-05-17 11:37:00,
2013-05-17 05:42:00,44.2,22.6,17.73,South,174,0.0,4.0,25,-99.99,,,-99.99,meteohub,2013-05-17 11:42:00,
2013-05-17 05:47:00,44.4,22.6,17.73,South,174,4.0,4.0,25,-99.99,,,-99.99,meteohub,2013-05-17 11:47:00,
2013-05-17 05:52:00,44.4,22.6,17.73,South,174,0.0,4.0,25,-99.99,,,-99.99,meteohub,2013-05-17 11:52:00,
2013-05-17 05:58:00,44.4,22.5,17.73,South,174,0.0,4.0,25,-99.99,,,-99.99,meteohub,2013-05-17 11:58:00,
2013-05-17 06:03:00,44.4,22.5,17.73,South,174,0.0,4.0,25,-99.99,,,-99.99,meteohub,2013-05-17 12:03:00,
2013-05-17 06:08:00,44.4,22.5,17.73,South,174,0.0,3.0,25,-99.99,,,-99.99,meteohub,2013-05-17 12:08:00,
2013-05-17 06:13:00,44.4,22.5,17.73,South,174,0.0,3.0,25,-99.99,,,-99.99,meteohub,2013-05-17 12:13:00,
2013-05-17 06:19:00,44.4,22.5,17.73,South,174,0.0,4.0,25,-99.99,,,-99.99,meteohub,2013-05-17 12:19:00,
2013-05-17 06:24:00,44.4,22.5,17.73,South,174,0.0,4.0,25,-99.99,,,-99.99,meteohub,2013-05-17 12:24:00,
2013-05-17 06:29:00,44.4,22.5,17.73,South,174,4.0,5.0,25,-99.99,,,-99.99,meteohub,2013-05-17 12:29:00,
2013-05-17 06:35:00,44.4,22.3,17.73,South,174,2.0,5.0,25,-99.99,,,-99.99,meteohub,2013-05-17 12:35:00,
2013-05-17 06:40:00,44.4,22.3,17.73,South,174,0.0,4.0,25,-99.99,,,-99.99,meteohub,2013-05-17 12:40:00,
2013-05-17 06:45:00,44.4,22.3,17.73,South,174,0.0,4.0,25,-99.99,,,-99.99,meteohub,2013-05-17 12:45:00,
2013-05-17 06:50:00,44.4,22.3,17.73,South,174,0.0,4.0,25,-99.99,,,-99.99,meteohub,2013-05-17 12:50:00,
2013-05-17 06:56:00,44.6,22.3,17.73,South,174,0.0,4.0,25,-99.99,,,-99.99,meteohub,2013-05-17 12:56:00,
2013-05-17 07:01:00,44.6,22.3,17.73,South,174,2.0,3.0,25,-99.99,,,-99.99,meteohub,2013-05-17 13:01:00,
2013-05-17 07:06:00,44.6,22.3,17.73,South,173,0.0,3.0,25,-99.99,,,-99.99,meteohub,2013-05-17 13:06:00,
2013-05-17 07:11:00,44.4,22.1,17.73,South,173,0.0,4.0,25,-99.99,,,-99.99,meteohub,2013-05-17 13:11:00,
2013-05-17 07:16:00,44.4,22.1,17.73,South,173,0.0,4.0,25,-99.99,,,-99.99,meteohub,2013-05-17 13:16:00,
2013-05-17 07:22:00,44.6,22.1,17.73,South,173,0.0,4.0,25,-99.99,,,-99.99,meteohub,2013-05-17 13:22:00,
2013-05-17 07:27:00,44.6,22.1,17.73,South,173,0.0,4.0,25,-99.99,,,-99.99,meteohub,2013-05-17 13:27:00,
2013-05-17 07:32:00,44.8,22.1,17.73,South,173,0.0,0.0,25,-99.99,,,-99.99,meteohub,2013-05-17 13:32:00,
2013-05-17 07:37:00,44.8,22.1,17.73,South,173,0.0,0.0,25,-99.99,,,-99.99,meteohub,2013-05-17 13:37:00,
2013-05-17 07:42:00,44.8,22.1,17.73,South,173,0.0,0.0,25,-99.99,,,-99.99,meteohub,2013-05-17 13:42:00,
2013-05-17 07:47:00,44.8,21.9,17.73,South,173,0.0,0.0,25,-99.99,,,-99.99,meteohub,2013-05-17 13:47:00,
2013-05-17 07:53:00,44.8,21.9,17.73,South,173,0.0,0.0,25,-99.99,,,-99.99,meteohub,2013-05-17 13:53:00,
2013-05-17 07:58:00,44.8,21.9,17.73,South,173,0.0,0.0,25,-99.99,,,-99.99,meteohub,2013-05-17 13:58:00,
2013-05-17 08:03:00,44.6,21.9,17.73,South,173,3.0,0.0,25,-99.99,,,-99.99,meteohub,2013-05-17 14:03:00,
2013-05-17 08:08:00,44.8,21.9,17.73,South,175,4.0,4.0,25,-99.99,,,-99.99,meteohub,2013-05-17 14:08:00,
2013-05-17 08:14:00,45.0,21.9,17.73,SSW,197,0.0,4.0,25,-99.99,,,-99.99,meteohub,2013-05-17 14:14:00,
2013-05-17 08:19:00,45.1,21.9,17.73,SSW,197,0.0,5.0,25,-99.99,,,-99.99,meteohub,2013-05-17 14:19:00,
2013-05-17 08:24:00,45.3,21.9,17.73,SSW,197,0.0,5.0,25,-99.99,,,-99.99,meteohub,2013-05-17 14:24:00,
2013-05-17 08:29:00,45.5,21.9,17.73,SSE,147,0.0,5.0,25,-99.99,,,-99.99,meteohub,2013-05-17 14:29:00,
2013-05-17 08:35:00,45.3,21.9,17.73,SW,232,3.0,4.0,25,-99.99,,,-99.99,meteohub,2013-05-17 14:35:00,
2013-05-17 08:40:00,45.3,21.9,17.73,SSE,168,0.0,4.0,25,-99.99,,,-99.99,meteohub,2013-05-17 14:40:00,
2013-05-17 08:45:00,45.3,21.9,17.73,SSE,168,0.0,4.0,25,-99.99,,,-99.99,meteohub,2013-05-17 14:45:00,
2013-05-17 08:51:00,45.5,21.9,17.73,North,-999,-999.0,4.0,25,-99.99,,,-99.99,meteohub,2013-05-17 14:51:00,
2013-05-17 08:56:00,45.5,21.9,17.73,North,-999,-999.0,2.0,25,-99.99,,,-99.99,meteohub,2013-05-17 14:56:00,
2013-05-17 09:01:00,45.7,21.9,17.73,SSE,168,0.0,2.0,25,-99.99,,,-99.99,meteohub,2013-05-17 15:01:00,
2013-05-17 09:06:00,46.0,21.9,17.73,SSE,168,0.0,0.0,25,-99.99,,,-99.99,meteohub,2013-05-17 15:06:00,
2013-05-17 09:11:00,45.9,21.7,17.73,SSE,168,0.0,0.0,25,-99.99,,,-99.99,meteohub,2013-05-17 15:11:00,
2013-05-17 09:16:00,46.0,21.7,17.73,SSE,168,0.0,0.0,25,-99.99,,,-99.99,meteohub,2013-05-17 15:16:00,
2013-05-17 09:22:00,46.0,21.7,17.73,South,190,0.0,0.0,25,-99.99,,,-99.99,meteohub,2013-05-17 15:22:00,
2013-05-17 09:27:00,46.2,21.7,17.73,South,189,0.0,0.0,25,-99.99,,,-99.99,meteohub,2013-05-17 15:27:00,
2013-05-17 09:32:00,46.4,21.7,17.73,South,169,0.0,5.0,25,-99.99,,,-99.99,meteohub,2013-05-17 15:32:00,
2013-05-17 09:37:00,46.4,21.7,17.73,South,169,0.0,5.0,25,-99.99,,,-99.99,meteohub,2013-05-17 15:37:00,
2013-05-17 09:42:00,46.4,21.7,17.73,South,169,0.0,5.0,25,-99.99,,,-99.99,meteohub,2013-05-17 15:42:00,
2013-05-17 09:47:00,46.8,21.7,17.73,South,169,0.0,0.0,25,-99.99,,,-99.99,meteohub,2013-05-17 15:47:00,
2013-05-17 09:52:00,46.8,21.7,17.73,South,169,0.0,4.0,25,-99.99,,,-99.99,meteohub,2013-05-17 15:52:00,
2013-05-17 09:57:00,46.9,21.7,17.73,South,169,0.0,4.0,25,-99.99,,,-99.99,meteohub,2013-05-17 15:57:00,
2013-05-17 10:02:00,46.9,21.7,17.73,South,169,0.0,4.0,25,-99.99,,,-99.99,meteohub,2013-05-17 16:02:00,
2013-05-17 10:07:00,47.3,21.7,17.73,South,186,0.0,4.0,25,-99.99,,,-99.99,meteohub,2013-05-17 16:07:00,
2013-05-17 10:12:00,47.5,21.7,17.73,South,186,3.0,4.0,25,-99.99,,,-99.99,meteohub,2013-05-17 16:12:00,
2013-05-17 10:17:00,47.1,22.5,17.73,South,169,6.0,7.0,26,-99.99,,,-99.99,meteohub,2013-05-17 16:17:00,
2013-05-17 10:22:00,47.1,22.5,17.73,SSE,167,5.0,8.0,26,-99.99,,,-99.99,meteohub,2013-05-17 16:22:00,
2013-05-17 10:27:00,47.1,22.5,17.73,South,191,6.0,8.0,26,-99.99,,,-99.99,meteohub,2013-05-17 16:27:00,
2013-05-17 10:32:00,47.1,21.7,17.73,SSE,165,3.0,8.0,25,-99.99,,,-99.99,meteohub,2013-05-17 16:32:00,
2013-05-17 10:37:00,47.3,21.7,17.73,SSE,163,5.0,7.0,25,-99.99,,,-99.99,meteohub,2013-05-17 16:37:00,
2013-05-17 10:42:00,47.3,22.5,17.73,SSE,166,3.0,7.0,26,-99.99,,,-99.99,meteohub,2013-05-17 16:42:00,
2013-05-17 10:47:00,47.3,22.5,17.73,South,186,3.0,6.0,26,-99.99,,,-99.99,meteohub,2013-05-17 16:47:00,
2013-05-17 10:52:00,47.5,22.5,17.73,South,185,3.0,6.0,26,-99.99,,,-99.99,meteohub,2013-05-17 16:52:00,
2013-05-17 10:57:00,47.5,22.5,17.73,SSE,166,4.0,6.0,26,-99.99,,,-99.99,meteohub,2013-05-17 16:57:00,
2013-05-17 11:02:00,47.3,22.5,17.73,South,169,4.0,5.0,26,-99.99,,,-99.99,meteohub,2013-05-17 17:02:00,
2013-05-17 11:07:00,47.3,22.5,17.73,South,171,5.0,6.0,26,-99.99,,,-99.99,meteohub,2013-05-17 17:07:00,
2013-05-17 11:12:00,47.3,22.5,17.73,SSE,163,4.0,8.0,26,-99.99,,,-99.99,meteohub,2013-05-17 17:12:00,
2013-05-17 11:17:00,47.1,22.5,17.73,South,172,5.0,8.0,26,-99.99,,,-99.99,meteohub,2013-05-17 17:17:00,
2013-05-17 11:22:00,46.8,22.5,17.73,South,189,3.0,8.0,26,-99.99,,,-99.99,meteohub,2013-05-17 17:22:00,
2013-05-17 11:27:00,46.9,22.5,17.73,SSW,200,6.0,8.0,26,-99.99,,,-99.99,meteohub,2013-05-17 17:27:00,
2013-05-17 11:32:00,46.6,22.5,17.73,SSW,195,6.0,8.0,26,-99.99,,,-99.99,meteohub,2013-05-17 17:32:00,
2013-05-17 11:37:00,46.8,22.5,17.73,SSW,206,5.0,8.0,26,-99.99,,,-99.99,meteohub,2013-05-17 17:37:00,
2013-05-17 11:42:00,47.1,22.5,17.73,South,185,5.0,8.0,26,-99.99,,,-99.99,meteohub,2013-05-17 17:42:00,
2013-05-17 11:47:00,47.1,22.5,17.73,SSW,193,6.0,8.0,26,-99.99,,,-99.99,meteohub,2013-05-17 17:47:00,
2013-05-17 11:52:00,47.7,22.5,17.73,SW,217,5.0,8.0,26,-99.99,,,-99.99,meteohub,2013-05-17 17:52:00,
2013-05-17 11:57:00,47.8,22.5,17.73,SSW,202,6.0,8.0,26,-99.99,,,-99.99,meteohub,2013-05-17 17:57:00,
2013-05-17 12:02:00,47.5,22.5,17.73,SSW,210,6.0,8.0,26,-99.99,,,-99.99,meteohub,2013-05-17 18:02:00,
2013-05-17 12:07:00,48.2,22.5,17.73,SSW,193,4.0,10.0,26,-99.99,,,-99.99,meteohub,2013-05-17 18:07:00,
2013-05-17 12:12:00,48.4,22.5,17.73,SSW,194,6.0,10.0,26,-99.99,,,-99.99,meteohub,2013-05-17 18:12:00,
2013-05-17 12:17:00,48.4,22.5,17.73,SW,217,4.0,10.0,26,-99.99,,,-99.99,meteohub,2013-05-17 18:17:00,
2013-05-17 12:22:00,48.2,22.5,17.73,SSW,213,5.0,9.0,26,-99.99,,,-99.99,meteohub,2013-05-17 18:22:00,
2013-05-17 12:27:00,47.8,22.5,17.73,South,186,7.0,9.0,26,-99.99,,,-99.99,meteohub,2013-05-17 18:27:00,
2013-05-17 12:32:00,48.0,22.5,17.73,North,-999,-999.0,8.0,26,-99.99,,,-99.99,meteohub,2013-05-17 18:32:00,
2013-05-17 12:37:00,48.0,22.5,17.73,SSE,157,6.0,8.0,26,-99.99,,,-99.99,meteohub,2013-05-17 18:37:00,
2013-05-17 12:42:00,47.8,22.5,17.73,SSW,207,6.0,9.0,26,-99.99,,,-99.99,meteohub,2013-05-17 18:42:00,
2013-05-17 12:47:00,47.8,22.5,17.73,SW,214,5.0,9.0,26,-99.99,,,-99.99,meteohub,2013-05-17 18:47:00,
2013-05-17 12:52:00,47.7,22.5,17.73,SSW,199,5.0,8.0,26,-99.99,,,-99.99,meteohub,2013-05-17 18:52:00,
2013-05-17 12:57:00,47.3,22.5,17.73,South,172,8.0,8.0,26,-99.99,,,-99.99,meteohub,2013-05-17 18:57:00,
2013-05-17 13:02:00,47.3,22.5,17.73,South,190,6.0,8.0,26,-99.99,,,-99.99,meteohub,2013-05-17 19:02:00,
2013-05-17 13:07:00,47.1,22.5,17.73,SW,227,5.0,8.0,26,-99.99,,,-99.99,meteohub,2013-05-17 19:07:00,
2013-05-17 13:13:00,47.1,22.5,17.73,SSW,202,6.0,8.0,26,-99.99,,,-99.99,meteohub,2013-05-17 19:13:00,
2013-05-17 13:18:00,47.3,22.5,17.73,SSW,197,3.0,8.0,26,-99.99,,,-99.99,meteohub,2013-05-17 19:18:00,
2013-05-17 13:23:00,47.3,22.5,17.73,South,183,6.0,9.0,26,-99.99,,,-99.99,meteohub,2013-05-17 19:23:00,
2013-05-17 13:28:00,46.2,22.5,17.73,South,191,8.0,9.0,26,-99.99,,,-99.99,meteohub,2013-05-17 19:28:00,
2013-05-17 13:33:00,46.4,22.5,17.73,SSW,193,6.0,11.0,26,-99.99,,,-99.99,meteohub,2013-05-17 19:33:00,
2013-05-17 13:39:00,46.8,23.4,17.73,SSW,212,6.0,11.0,27,-99.99,,,-99.99,meteohub,2013-05-17 19:39:00,
2013-05-17 13:44:00,46.9,23.4,17.73,SW,214,5.0,11.0,27,-99.99,,,-99.99,meteohub,2013-05-17 19:44:00,
2013-05-17 13:49:00,47.1,23.4,17.73,SSW,206,4.0,9.0,27,-99.99,,,-99.99,meteohub,2013-05-17 19:49:00,
2013-05-17 13:54:00,47.7,23.4,17.73,WSW,239,4.0,7.0,27,-99.99,,,-99.99,meteohub,2013-05-17 19:54:00,
2013-05-17 13:59:00,48.2,23.4,17.73,SSW,211,4.0,6.0,27,-99.99,,,-99.99,meteohub,2013-05-17 19:59:00,
2013-05-17 14:04:00,48.2,23.4,17.73,SSW,202,4.0,6.0,27,-99.99,,,-99.99,meteohub,2013-05-17 20:04:00,
2013-05-17 14:10:00,48.7,22.5,17.73,SW,236,3.0,6.0,26,-99.99,,,-99.99,meteohub,2013-05-17 20:10:00,
2013-05-17 14:15:00,49.1,22.5,17.73,South,182,6.0,6.0,26,-99.99,,,-99.99,meteohub,2013-05-17 20:15:00,
2013-05-17 14:20:00,49.1,22.5,17.73,SSW,198,3.0,6.0,26,-99.99,,,-99.99,meteohub,2013-05-17 20:20:00,
2013-05-17 14:25:00,48.9,22.5,17.73,South,176,4.0,6.0,26,-99.99,,,-99.99,meteohub,2013-05-17 20:25:00,
2013-05-17 14:30:00,48.7,22.5,17.73,South,190,6.0,6.0,26,-99.99,,,-99.99,meteohub,2013-05-17 20:30:00,
2013-05-17 14:35:00,48.7,22.5,17.73,South,175,6.0,6.0,26,-99.99,,,-99.99,meteohub,2013-05-17 20:35:00,
2013-05-17 14:41:00,48.7,22.5,17.73,SW,233,5.0,8.0,26,-99.99,,,-99.99,meteohub,2013-05-17 20:41:00,
2013-05-17 14:46:00,49.1,22.5,17.73,South,185,8.0,9.0,26,-99.99,,,-99.99,meteohub,2013-05-17 20:46:00,
2013-05-17 14:51:00,49.5,22.5,17.73,SSW,194,5.0,9.0,26,-99.99,,,-99.99,meteohub,2013-05-17 20:51:00,
2013-05-17 14:56:00,49.5,22.5,17.73,SSW,194,6.0,8.0,26,-99.99,,,-99.99,meteohub,2013-05-17 20:56:00,
2013-05-17 15:01:00,48.9,23.4,17.73,South,191,9.0,11.0,27,-99.99,,,-99.99,meteohub,2013-05-17 21:01:00,
2013-05-17 15:07:00,48.7,23.4,17.73,South,181,9.0,12.0,27,-99.99,,,-99.99,meteohub,2013-05-17 21:07:00,
2013-05-17 15:12:00,48.9,23.4,17.73,South,186,8.0,12.0,27,-99.99,,,-99.99,meteohub,2013-05-17 21:12:00,
2013-05-17 15:17:00,48.7,23.4,17.73,SSW,194,9.0,12.0,27,-99.99,,,-99.99,meteohub,2013-05-17 21:17:00,
2013-05-17 15:22:00,48.9,23.4,17.73,SSW,208,6.0,12.0,27,-99.99,,,-99.99,meteohub,2013-05-17 21:22:00,
2013-05-17 15:27:00,48.9,23.4,17.73,SSW,212,8.0,12.0,27,-99.99,,,-99.99,meteohub,2013-05-17 21:27:00,
2013-05-17 15:32:00,49.1,23.4,17.73,SSW,192,6.0,11.0,27,-99.99,,,-99.99,meteohub,2013-05-17 21:32:00,
2013-05-17 15:37:00,49.1,23.4,17.73,South,182,9.0,11.0,27,-99.99,,,-99.99,meteohub,2013-05-17 21:37:00,
2013-05-17 15:42:00,49.1,23.4,17.73,SSW,198,8.0,11.0,27,-99.99,,,-99.99,meteohub,2013-05-17 21:42:00,
2013-05-17 15:47:00,49.3,23.4,17.73,South,177,7.0,11.0,27,-99.99,,,-99.99,meteohub,2013-05-17 21:47:00,
2013-05-17 15:52:00,49.3,23.4,17.73,South,181,6.0,11.0,27,-99.99,,,-99.99,meteohub,2013-05-17 21:52:00,
2013-05-17 15:57:00,49.3,23.4,17.73,SSW,197,5.0,11.0,27,-99.99,,,-99.99,meteohub,2013-05-17 21:57:00,
2013-05-17 16:02:00,49.6,23.4,17.73,South,182,8.0,8.0,27,-99.99,,,-99.99,meteohub,2013-05-17 22:02:00,
2013-05-17 16:07:00,50.0,23.4,17.73,SSE,167,5.0,8.0,27,-99.99,,,-99.99,meteohub,2013-05-17 22:07:00,
2013-05-17 16:12:00,50.4,23.4,17.73,South,180,5.0,8.0,27,-99.99,,,-99.99,meteohub,2013-05-17 22:12:00,
2013-05-17 16:17:00,50.2,23.4,17.73,SSE,166,6.0,8.0,27,-99.99,,,-99.99,meteohub,2013-05-17 22:17:00,
2013-05-17 16:22:00,50.5,23.4,17.73,SSE,162,3.0,10.0,27,-99.99,,,-99.99,meteohub,2013-05-17 22:22:00,
2013-05-17 16:28:00,51.6,23.4,17.73,South,170,6.0,10.0,27,-99.99,,,-99.99,meteohub,2013-05-17 22:28:00,
2013-05-17 16:33:00,52.3,23.5,17.73,SSW,213,6.0,10.0,27,-99.99,,,-99.99,meteohub,2013-05-17 22:33:00,
2013-05-17 16:38:00,52.2,23.5,17.73,South,191,6.0,11.0,27,-99.99,,,-99.99,meteohub,2013-05-17 22:38:00,
2013-05-17 16:43:00,52.0,23.4,17.73,SSW,200,3.0,12.0,27,-99.99,,,-99.99,meteohub,2013-05-17 22:43:00,
2013-05-17 16:48:00,51.1,24.3,17.73,SSW,192,11.0,12.0,28,-99.99,,,-99.99,meteohub,2013-05-17 22:48:00,
2013-05-17 16:53:00,51.1,24.4,17.73,South,190,11.0,13.0,28,-99.99,,,-99.99,meteohub,2013-05-17 22:53:00,
2013-05-17 16:59:00,51.1,24.4,17.73,South,179,6.0,13.0,28,-99.99,,,-99.99,meteohub,2013-05-17 22:59:00,
2013-05-17 17:04:00,51.3,24.4,17.73,SSW,210,5.0,13.0,28,-99.99,,,-99.99,meteohub,2013-05-17 23:04:00,
2013-05-17 17:09:00,51.3,24.3,17.73,South,184,8.0,12.0,28,-99.99,,,-99.99,meteohub,2013-05-17 23:09:00,
2013-05-17 17:14:00,51.4,25.2,17.73,SSW,204,6.0,12.0,29,-99.99,,,-99.99,meteohub,2013-05-17 23:14:00,
2013-05-17 17:19:00,51.3,25.2,17.73,South,184,10.0,11.0,29,-99.99,,,-99.99,meteohub,2013-05-17 23:19:00,
2013-05-17 17:25:00,50.9,25.2,17.73,South,179,12.0,12.0,29,-99.99,,,-99.99,meteohub,2013-05-17 23:25:00,
2013-05-17 17:30:00,51.4,25.2,17.73,SSW,204,7.0,12.0,29,-99.99,,,-99.99,meteohub,2013-05-17 23:30:00,
2013-05-17 17:35:00,52.5,26.1,17.73,South,173,10.0,13.0,30,-99.99,,,-99.99,meteohub,2013-05-17 23:35:00,
2013-05-17 17:40:00,52.7,25.2,17.73,SSE,163,6.0,13.0,29,-99.99,,,-99.99,meteohub,2013-05-17 23:40:00,
2013-05-17 17:45:00,52.3,25.2,17.73,SSE,168,8.0,11.0,29,-99.99,,,-99.99,meteohub,2013-05-17 23:45:00,
2013-05-17 17:51:00,52.2,26.1,17.73,South,185,6.0,11.0,30,-99.99,,,-99.99,meteohub,2013-05-17 23:51:00,
2013-05-17 17:56:00,51.6,26.1,17.73,SSW,208,6.0,9.0,30,-99.99,,,-99.99,meteohub,2013-05-17 23:56:00,
2013-05-17 18:01:00,51.6,26.1,17.73,South,178,8.0,10.0,30,-99.99,,,-99.99,meteohub,2013-05-18 00:01:00,
2013-05-17 18:06:00,52.0,26.1,17.73,SSW,212,6.0,10.0,30,-99.99,,,-99.99,meteohub,2013-05-18 00:06:00,
2013-05-17 18:11:00,52.0,26.8,17.73,SSW,195,8.0,10.0,31,-99.99,,,-99.99,meteohub,2013-05-18 00:11:00,
2013-05-17 18:17:00,51.8,26.8,17.73,SSW,198,9.0,10.0,31,-99.99,,,-99.99,meteohub,2013-05-18 00:17:00,
2013-05-17 18:22:00,51.8,26.8,17.73,South,186,5.0,10.0,31,-99.99,,,-99.99,meteohub,2013-05-18 00:22:00,
2013-05-17 18:27:00,51.6,27.7,17.73,SW,215,5.0,10.0,32,-99.99,,,-99.99,meteohub,2013-05-18 00:27:00,
2013-05-17 18:32:00,51.6,27.7,17.73,SSW,195,6.0,11.0,32,-99.99,,,-99.99,meteohub,2013-05-18 00:32:00,
2013-05-17 18:37:00,51.6,26.8,17.73,SSE,166,5.0,11.0,31,-99.99,,,-99.99,meteohub,2013-05-18 00:37:00,
2013-05-17 18:42:00,51.4,27.7,17.73,South,186,5.0,11.0,32,-99.99,,,-99.99,meteohub,2013-05-18 00:42:00,
2013-05-17 18:47:00,51.3,26.8,17.73,South,186,8.0,11.0,31,-99.99,,,-99.99,meteohub,2013-05-18 00:47:00,
2013-05-17 18:52:00,51.1,27.7,17.73,SW,215,7.0,11.0,32,-99.99,,,-99.99,meteohub,2013-05-18 00:52:00,
2013-05-17 18:57:00,51.4,27.7,17.73,South,187,6.0,11.0,32,-99.99,,,-99.99,meteohub,2013-05-18 00:57:00,
2013-05-17 19:02:00,52.0,27.7,17.73,South,182,8.0,11.0,32,-99.99,,,-99.99,meteohub,2013-05-18 01:02:00,
2013-05-17 19:07:00,52.3,27.7,17.73,SSE,155,8.0,11.0,32,-99.99,,,-99.99,meteohub,2013-05-18 01:07:00,
2013-05-17 19:12:00,52.7,27.7,17.73,South,178,8.0,11.0,32,-99.99,,,-99.99,meteohub,2013-05-18 01:12:00,
2013-05-17 19:17:00,53.1,27.7,17.73,South,187,6.0,11.0,32,-99.99,,,-99.99,meteohub,2013-05-18 01:17:00,
2013-05-17 19:22:00,53.1,27.7,17.73,SSE,160,12.0,12.0,32,-99.99,,,-99.99,meteohub,2013-05-18 01:22:00,
2013-05-17 19:27:00,52.9,28.6,17.73,SSE,156,8.0,11.0,33,-99.99,,,-99.99,meteohub,2013-05-18 01:27:00,
2013-05-17 19:32:00,52.5,28.6,17.73,SSW,196,6.0,12.0,33,-99.99,,,-99.99,meteohub,2013-05-18 01:32:00,
2013-05-17 19:37:00,52.3,28.6,17.73,SSW,209,8.0,12.0,33,-99.99,,,-99.99,meteohub,2013-05-18 01:37:00,
2013-05-17 19:42:00,52.0,28.6,17.73,SSW,199,5.0,10.0,33,-99.99,,,-99.99,meteohub,2013-05-18 01:42:00,
2013-05-17 19:47:00,51.4,28.6,17.73,SSE,157,5.0,10.0,33,-99.99,,,-99.99,meteohub,2013-05-18 01:47:00,
2013-05-17 19:53:00,50.9,27.7,17.73,South,176,5.0,11.0,32,-99.99,,,-99.99,meteohub,2013-05-18 01:53:00,
2013-05-17 19:58:00,50.9,27.7,17.73,SSE,164,6.0,11.0,32,-99.99,,,-99.99,meteohub,2013-05-18 01:58:00,
2013-05-17 20:03:00,50.7,27.0,17.73,SSW,200,5.0,11.0,31,-99.99,,,-99.99,meteohub,2013-05-18 02:03:00,
2013-05-17 20:08:00,50.5,27.7,17.73,South,170,5.0,8.0,32,-99.99,,,-99.99,meteohub,2013-05-18 02:08:00,
2013-05-17 20:13:00,50.2,27.0,17.73,SSE,147,4.0,8.0,31,-99.99,,,-99.99,meteohub,2013-05-18 02:13:00,
2013-05-17 20:19:00,50.0,27.0,17.73,South,172,5.0,8.0,31,-99.99,,,-99.99,meteohub,2013-05-18 02:19:00,
2013-05-17 20:24:00,49.8,27.0,17.73,SSW,194,6.0,9.0,31,-99.99,,,-99.99,meteohub,2013-05-18 02:24:00,
2013-05-17 20:29:00,49.6,27.0,17.73,SSW,195,5.0,9.0,31,-99.99,,,-99.99,meteohub,2013-05-18 02:29:00,
2013-05-17 20:34:00,49.5,27.0,17.73,SSE,167,3.0,9.0,31,-99.99,,,-99.99,meteohub,2013-05-18 02:34:00,
2013-05-17 20:39:00,49.3,27.0,17.73,SSW,196,5.0,8.0,31,-99.99,,,-99.99,meteohub,2013-05-18 02:39:00,
2013-05-17 20:44:00,48.9,27.0,17.73,South,186,6.0,8.0,31,-99.99,,,-99.99,meteohub,2013-05-18 02:44:00,
2013-05-17 20:50:00,48.9,26.2,17.73,South,177,5.0,8.0,30,-99.99,,,-99.99,meteohub,2013-05-18 02:50:00,
2013-05-17 20:55:00,48.7,26.1,17.73,SSW,193,4.0,8.0,30,-99.99,,,-99.99,meteohub,2013-05-18 02:55:00,
2013-05-17 21:00:00,48.7,26.1,17.73,SSW,192,3.0,8.0,30,-99.99,,,-99.99,meteohub,2013-05-18 03:00:00,
2013-05-17 21:05:00,48.6,26.1,17.73,SSE,166,3.0,8.0,30,-99.99,,,-99.99,meteohub,2013-05-18 03:05:00,
2013-05-17 21:10:00,48.4,26.1,17.73,SSW,198,4.0,8.0,30,-99.99,,,-99.99,meteohub,2013-05-18 03:10:00,
2013-05-17 21:16:00,48.4,26.1,17.73,SSW,213,3.0,8.0,30,-99.99,,,-99.99,meteohub,2013-05-18 03:16:00,
2013-05-17 21:21:00,48.2,26.2,17.73,SSW,195,6.0,6.0,30,-99.99,,,-99.99,meteohub,2013-05-18 03:21:00,
2013-05-17 21:26:00,48.4,26.1,17.73,South,191,4.0,6.0,30,-99.99,,,-99.99,meteohub,2013-05-18 03:26:00,
2013-05-17 21:31:00,48.2,26.1,17.73,South,191,4.0,6.0,30,-99.99,,,-99.99,meteohub,2013-05-18 03:31:00,
2013-05-17 21:36:00,48.0,26.1,17.73,South,190,4.0,8.0,30,-99.99,,,-99.99,meteohub,2013-05-18 03:36:00,
2013-05-17 21:41:00,48.0,26.1,17.73,South,189,3.0,6.0,30,-99.99,,,-99.99,meteohub,2013-05-18 03:41:00,
2013-05-17 21:47:00,47.8,26.1,17.73,SSW,196,3.0,6.0,30,-99.99,,,-99.99,meteohub,2013-05-18 03:47:00,
2013-05-17 21:52:00,47.7,26.1,17.73,WSW,243,3.0,6.0,30,-99.99,,,-99.99,meteohub,2013-05-18 03:52:00,
2013-05-17 21:57:00,47.7,26.1,17.73,WSW,245,3.0,6.0,30,-99.99,,,-99.99,meteohub,2013-05-18 03:57:00,
2013-05-17 22:01:00,47.5,25.9,17.73,WSW,240,3.0,6.0,30,-99.99,,,-99.99,meteohub,2013-05-18 04:01:00,
2013-05-17 22:02:00,47.5,25.9,17.73,WSW,240,2.0,6.0,30,-99.99,,,-99.99,meteohub,2013-05-18 04:02:00,
2013-05-17 22:05:00,47.3,25.9,17.73,WSW,240,2.0,6.0,30,-99.99,,,-99.99,meteohub,2013-05-18 04:05:00,
2013-05-17 22:10:00,47.1,25.9,17.73,WSW,242,3.0,6.0,30,-99.99,,,-99.99,meteohub,2013-05-18 04:10:00,
2013-05-17 22:15:00,47.1,25.9,17.73,SW,217,5.0,6.0,30,-99.99,,,-99.99,meteohub,2013-05-18 04:15:00,
2013-05-17 22:20:00,47.3,25.9,17.73,SW,226,4.0,6.0,30,-99.99,,,-99.99,meteohub,2013-05-18 04:20:00,
2013-05-17 22:26:00,47.1,25.9,17.73,WSW,237,5.0,7.0,30,-99.99,,,-99.99,meteohub,2013-05-18 04:26:00,
2013-05-17 22:31:00,47.1,25.0,17.73,WSW,242,4.0,7.0,29,-99.99,,,-99.99,meteohub,2013-05-18 04:31:00,
2013-05-17 22:36:00,47.1,25.0,17.73,SSW,205,4.0,8.0,29,-99.99,,,-99.99,meteohub,2013-05-18 04:36:00,
2013-05-17 22:41:00,47.1,25.9,17.73,SSW,201,4.0,8.0,30,-99.99,,,-99.99,meteohub,2013-05-18 04:41:00,
2013-05-17 22:46:00,47.3,25.9,17.73,SSW,194,4.0,5.0,30,-99.99,,,-99.99,meteohub,2013-05-18 04:46:00,
2013-05-17 22:51:00,47.3,25.7,17.73,South,176,3.0,6.0,30,-99.99,,,-99.99,meteohub,2013-05-18 04:51:00,
2013-05-17 22:57:00,47.3,25.7,17.73,SSW,196,4.0,6.0,30,-99.99,,,-99.99,meteohub,2013-05-18 04:57:00,
2013-05-17 23:02:00,47.3,25.7,17.73,SW,226,4.0,8.0,30,-99.99,,,-99.99,meteohub,2013-05-18 05:02:00,
2013-05-17 23:07:00,47.3,25.7,17.73,SW,226,0.0,8.0,30,-99.99,,,-99.99,meteohub,2013-05-18 05:07:00,
2013-05-17 23:12:00,47.3,25.0,17.73,SSW,193,0.0,5.0,29,-99.99,,,-99.99,meteohub,2013-05-18 05:12:00,
2013-05-17 23:17:00,47.3,25.0,17.73,WSW,237,3.0,5.0,29,-99.99,,,-99.99,meteohub,2013-05-18 05:17:00,
2013-05-17 23:22:00,47.5,25.0,17.73,SSW,204,4.0,6.0,29,-99.99,,,-99.99,meteohub,2013-05-18 05:22:00,
2013-05-17 23:27:00,47.3,25.0,17.73,SSW,199,4.0,6.0,29,-99.99,,,-99.99,meteohub,2013-05-18 05:27:00,
2013-05-17 23:32:00,47.1,25.0,17.73,SSW,210,4.0,6.0,29,-99.99,,,-99.99,meteohub,2013-05-18 05:32:00,
2013-05-17 23:37:00,46.9,25.7,17.73,SW,226,4.0,6.0,30,-99.99,,,-99.99,meteohub,2013-05-18 05:37:00,
2013-05-17 23:42:00,46.9,25.7,17.73,South,182,4.0,9.0,30,-99.99,,,-99.99,meteohub,2013-05-18 05:42:00,
2013-05-17 23:47:00,46.4,25.7,17.73,SSE,165,6.0,9.0,30,-99.99,,,-99.99,meteohub,2013-05-18 05:47:00,
2013-05-17 23:52:00,46.0,25.7,17.73,South,190,4.0,9.0,30,-99.99,,,-99.99,meteohub,2013-05-18 05:52:00,
2013-05-17 23:57:00,45.9,25.5,17.73,South,173,0.0,9.0,30,-99.99,,,-99.99,meteohub,2013-05-18 05:57:00,